Location: Altenst�hlen
(53.5567°N, 8.9425°E)
Time: 02:42:55
(UTC+00:00)

STARLINK-62 - Pass Details

Date: 23 October 2019
Orbit: 548 x 551 km, 53.0° (Epoch: 22 November)

Event Time Altitude Azimuth Distance (km) Brightness Sun altitude
Rises 17:04:28 0° 270° (W) 2,719 9.4 -8.6°
Reaches altitude 10° 17:06:42 10° 270° (W) 1,826 7.9 -8.9°
Maximum altitude 17:10:51 85° 184° (S) 558 3.6 -9.5°
Enters shadow 17:14:27 14° 95° (E) 1,604 5.3 -10.1°
